Theta_e
319 320 320 320 320 318 317 317 318 318 319 318 318 318 318 319 318 318 319 319 319 320 319 320 321 320 320 320 321 321 322 322 322 337 349 347 349 349 350 349 347 346 344 340
320 320 320 319 319 318 318 318 319 318 318 318 318 318 319 320 320 320 320 320 319 320 320 320 320 321 320 322 321 323 321 320 321 338 347 348 349 348 350 351 347 346 345 341
319 319 319 319 318 319 319 319 317 317 317 317 317 318 319 319 319 320 321 321 321 322 320 320 321 320 320 321 321 323 322 321 321 333 344 348 350 348 349 349 349 348 346 344
319 319 319 319 319 319 319 318 317 317 318 319 317 318 320 321 322 321 321 321 322 319 320 321 321 321 321 320 321 324 323 321 321 323 343 347 350 349 348 347 348 347 346 344
320 320 319 319 319 319 319 318 318 318 318 319 317 320 322 322 323 322 321 322 321 321 321 321 320 320 322 320 320 323 323 323 322 322 333 335 348 348 348 349 348 347 347 345
321 320 318 319 319 318 318 318 318 318 318 321 318 324 325 322 323 323 322 322 321 322 321 320 321 320 320 321 321 320 325 324 326 335 335 339 335 346 347 346 348 346 347 345
319 319 319 319 320 319 318 319 323 321 324 322 319 321 322 322 321 322 322 320 319 319 321 322 321 321 320 320 321 321 326 326 328 333 343 341 339 343 346 347 346 346 346 345
320 320 318 319 318 317 317 318 322 325 323 321 318 318 323 321 320 319 320 318 320 320 322 323 322 322 324 322 320 321 325 327 332 334 336 342 340 343 346 344 344 345 346 346
321 319 317 317 317 317 318 321 318 318 322 321 319 318 321 320 319 319 319 319 320 321 321 322 323 324 325 323 324 325 324 331 332 335 337 337 339 342 344 342 344 345 345 345
319 322 317 317 316 317 318 318 322 323 324 321 316 317 325 321 318 320 320 320 319 320 321 321 321 323 323 325 325 325 324 325 333 335 336 337 335 337 341 342 341 340 342 344
318 321 319 317 317 317 318 319 320 320 321 322 325 319 319 319 320 320 320 319 319 319 318 319 320 321 322 322 324 325 326 324 325 326 339 339 336 331 337 341 340 337 338 341
318 319 319 317 316 317 317 316 318 323 319 320 320 320 317 318 319 319 318 317 316 316 318 318 319 319 320 321 322 324 326 330 326 324 326 339 335 330 331 336 337 340 342 342
317 320 319 317 317 317 317 316 315 316 319 321 321 320 318 320 319 316 316 316 316 315 315 316 317 318 319 320 320 321 322 324 327 326 325 329 336 334 331 331 336 344 342 340
316 318 318 320 319 317 317 316 316 317 321 319 320 320 319 317 316 316 315 315 314 314 314 315 315 317 317 318 319 320 320 322 324 327 326 326 337 333 333 331 338 341 339 338
317 318 318 318 317 317 317 317 317 317 319 322 320 318 316 316 315 315 314 314 314 314 314 314 314 315 316 317 318 319 319 320 322 324 328 326 337 335 332 330 338 339 335 335
317 319 318 319 318 318 318 318 317 318 317 317 316 316 314 313 310 309 309 311 312 312 312 312 312 313 313 315 317 318 319 319 320 323 328 328 334 337 333 330 336 336 335 334
319 321 321 322 318 318 321 318 318 317 316 319 319 316 313 310 311 310 309 309 310 310 309 309 310 313 312 312 313 316 317 317 319 321 324 329 331 334 331 329 334 335 332 332
320 321 323 322 319 321 317 317 317 318 317 316 316 311 311 310 308 306 305 305 305 306 306 306 308 310 310 311 311 314 315 316 318 320 322 328 331 330 331 329 334 331 327 322
322 320 322 321 321 318 317 317 318 317 316 316 311 310 307 306 304 303 305 305 305 304 304 305 306 307 308 309 311 313 315 316 317 319 320 325 329 329 331 331 330 326 325 320
317 318 321 320 322 323 319 317 315 317 317 312 308 306 305 302 303 304 304 303 302 302 302 303 304 306 307 309 310 312 314 316 318 319 318 325 329 328 329 329 325 324 323 324
319 318 319 320 320 319 318 316 315 318 316 308 307 305 302 302 302 301 300 301 303 304 306 309 305 304 306 307 309 311 312 316 318 318 319 327 328 328 328 328 325 327 326 326
318 319 319 319 319 319 318 316 315 311 308 307 304 302 301 300 300 300 302 304 309 312 312 313 310 304 306 307 309 311 312 316 317 318 322 325 328 327 328 328 328 328 326 324
317 317 318 317 319 318 316 316 311 309 306 304 302 300 299 299 300 301 305 308 315 312 309 308 308 305 305 307 310 311 312 316 317 319 327 327 327 326 327 329 328 327 325 321
315 314 318 318 316 318 316 313 309 307 304 302 301 300 299 299 301 304 307 309 315 313 310 309 306 305 305 307 309 311 312 315 316 320 326 326 326 326 326 326 325 326 324 318
316 315 316 318 317 314 313 309 308 305 303 301 300 299 299 300 302 305 306 310 317 315 312 310 309 308 308 308 309 311 313 314 317 324 326 324 323 323 321 323 324 324 322 320
315 316 317 318 315 311 309 308 306 304 301 300 299 300 299 300 303 305 306 311 315 315 315 314 314 314 314 312 313 313 313 315 320 323 322 321 320 318 319 320 315 314 318 316
Wind_Speed
13 11 14 18 11 15 19 21 24 25 25 23 24 24 26 29 32 31 33 34 36 35 34 33 32 35 33 34 31 30 31 31 29 32 33 38 42 33 35 32 31 32 27 32
14 13 16 21 15 17 21 24 24 24 23 23 25 28 28 27 28 29 29 32 34 37 36 32 34 32 35 31 29 27 32 30 35 32 34 35 42 41 38 30 35 34 30 32
16 20 19 10 16 19 22 21 21 25 26 26 26 28 25 28 31 22 22 30 28 30 33 34 32 34 32 31 29 30 29 29 32 32 30 34 36 42 39 34 35 34 34 32
15 13 21 22 21 19 21 19 22 23 23 20 22 23 23 19 20 11 23 24 32 27 25 24 28 31 34 33 30 28 29 28 30 32 30 32 38 41 44 42 30 35 37 32
20 19 21 18 22 14 17 20 24 29 26 25 28 14 16 21 15 15 12 17 12 13 19 19 27 32 30 33 33 30 32 28 26 30 33 32 36 38 40 42 33 32 32 32
21 23 19 22 13 11 20 22 26 22 18 15 25 4 8 10 8 26 13 19 11 5 14 20 20 30 32 33 34 36 33 29 26 28 27 34 34 36 38 40 36 32 32 34
20 19 19 18 19 17 24 22 10 11 8 14 16 4 11 13 24 28 24 13 18 18 12 13 15 18 25 30 34 33 31 32 28 28 27 29 26 33 38 37 35 38 35 39
15 18 12 25 23 24 24 17 10 10 11 20 19 10 5 10 15 29 34 43 20 9 10 13 12 14 20 11 33 30 29 32 29 25 25 25 24 28 32 34 32 39 39 39
12 11 26 24 21 19 19 12 6 8 18 13 14 19 8 10 4 11 18 35 37 28 22 7 8 9 15 10 13 7 21 31 29 25 22 22 21 23 26 30 27 35 38 35
10 21 14 18 23 19 18 6 5 6 6 6 13 19 7 7 17 9 5 10 23 20 23 31 16 10 11 8 11 9 6 4 15 23 23 23 22 20 23 24 27 31 34 33
15 2 15 23 18 21 15 12 11 5 5 5 8 9 18 21 14 13 18 21 19 8 10 30 13 7 10 6 4 9 5 13 12 11 16 24 19 19 24 26 28 27 29 32
8 6 15 26 27 22 8 13 9 3 12 14 13 19 17 17 23 19 18 23 28 33 23 13 22 9 8 9 3 4 7 4 10 17 17 23 25 15 16 19 23 26 22 26
3 2 9 17 7 8 20 21 18 19 17 18 13 14 13 21 19 24 26 31 29 31 36 32 20 27 7 11 8 6 6 7 8 13 20 24 23 14 15 15 15 16 17 25
4 11 14 14 21 22 24 24 24 18 10 19 17 23 21 17 19 23 33 33 34 33 34 32 33 24 19 19 10 12 9 7 10 9 15 19 23 22 18 16 14 17 20 27
3 9 15 18 24 26 27 27 25 18 20 12 9 22 19 19 23 28 37 35 37 34 30 30 28 27 22 23 19 18 13 10 9 12 11 15 21 23 20 19 20 21 18 22
6 11 14 25 24 26 28 23 16 18 19 17 18 22 19 26 27 31 36 38 35 36 34 34 35 30 30 24 23 13 21 12 11 13 11 14 14 26 21 19 22 22 20 22
18 16 17 20 18 22 18 4 9 10 12 9 11 24 18 20 26 35 41 37 37 42 44 42 45 35 31 31 27 24 17 16 13 14 14 14 15 23 21 24 25 23 20 19
16 17 14 14 18 14 14 15 9 11 14 16 18 11 21 31 42 46 43 42 42 39 39 38 38 37 31 36 33 24 24 17 15 17 17 16 20 25 24 24 26 27 24 22
16 11 7 6 12 19 16 8 2 3 18 15 5 19 27 39 37 46 24 27 32 36 37 35 31 32 32 39 33 26 21 21 21 21 21 12 22 26 29 31 33 29 25 24
7 11 7 12 15 12 14 15 17 12 12 7 14 14 21 29 14 22 45 52 49 45 45 42 36 27 30 28 27 31 24 26 24 22 23 14 26 31 37 36 36 31 27 25
13 13 14 13 15 15 9 24 21 9 13 19 24 28 28 17 19 46 56 54 53 48 45 36 34 35 33 29 26 29 32 28 24 24 20 22 27 33 33 36 40 31 27 25
9 6 10 7 13 8 32 17 4 6 21 27 30 34 33 38 44 47 51 50 50 33 22 24 30 30 38 35 26 29 33 26 27 25 21 26 28 33 35 35 38 36 31 30
6 7 12 7 7 24 24 19 16 26 21 27 35 39 37 39 43 47 47 49 24 14 12 6 21 25 25 31 25 27 33 26 27 25 28 34 33 34 36 40 42 40 37 38
16 20 8 16 10 18 25 25 29 21 29 35 39 37 39 37 38 44 40 43 21 9 3 3 9 14 28 26 23 28 28 27 25 25 39 39 42 42 45 44 43 43 45 48
17 20 9 13 16 23 24 27 24 31 35 35 38 37 37 34 38 33 41 38 10 3 3 4 5 13 21 26 28 28 29 33 25 35 44 46 46 47 46 42 44 46 48 49
17 3 4 8 20 10 22 25 28 31 33 35 36 38 32 27 32 33 31 24 12 7 3 2 11 13 18 25 25 32 34 31 35 47 51 51 53 51 50 50 47 48 50 43
Wind_Direction
319 289 272 297 339 318 307 297 293 291 296 307 302 302 300 300 287 278 272 272 270 271 260 252 245 245 250 237 242 232 225 230 238 230 228 220 215 208 206 207 206 213 214 194
290 296 313 319 318 295 287 287 292 305 316 316 307 296 288 279 273 276 281 268 259 253 259 252 247 244 236 237 231 229 217 227 241 228 230 227 219 214 204 207 207 212 214 203
310 302 297 307 284 298 299 301 318 314 311 298 294 286 295 298 293 298 309 308 259 267 241 243 241 231 232 235 228 228 216 231 240 226 235 231 224 220 213 210 208 209 215 209
301 290 310 302 301 300 298 326 307 301 301 293 298 293 283 316 330 278 272 282 301 255 259 249 241 230 225 229 228 232 222 232 240 228 227 232 224 219 219 216 213 205 215 208
290 302 290 289 288 310 310 304 294 299 296 297 290 297 330 331 327 313 285 251 278 320 306 270 227 234 226 219 227 227 229 231 232 229 216 233 228 227 223 218 214 207 205 208
282 296 307 290 333 305 280 292 305 309 303 293 295 19 293 291 215 254 249 251 293 312 304 282 279 220 223 219 221 225 226 218 225 216 222 225 229 229 225 221 213 211 210 214
314 301 287 347 341 323 324 303 309 296 307 284 325 201 239 356 346 349 345 341 324 310 302 337 323 230 218 217 216 217 219 210 216 210 216 223 231 226 228 223 220 214 212 213
302 315 334 349 325 306 296 299 300 298 301 299 306 273 23 5 339 332 347 341 343 298 356 3 336 346 19 248 208 214 213 208 206 205 216 222 223 227 229 231 228 220 216 214
322 286 315 305 299 313 311 314 335 265 258 280 281 285 39 325 283 332 9 340 324 350 354 326 266 359 19 331 10 215 208 203 201 204 203 219 223 228 228 228 225 223 224 216
307 306 313 307 322 292 294 322 260 224 305 314 302 310 137 272 340 308 295 207 274 329 342 338 6 28 358 356 346 325 256 216 195 204 205 209 224 232 229 229 234 234 234 230
319 299 289 304 309 314 317 322 310 357 258 303 313 306 326 320 7 339 332 328 323 338 311 314 299 21 326 339 331 327 314 259 241 223 210 210 219 239 232 231 234 233 238 234
39 296 297 303 297 275 222 322 276 252 279 276 283 283 292 317 328 340 326 325 333 328 307 295 293 285 249 277 286 315 301 259 263 238 240 229 220 216 224 235 242 240 238 234
25 281 309 311 298 354 317 318 313 295 300 287 285 283 310 328 313 329 320 312 314 312 308 307 301 296 266 238 236 235 258 273 262 236 234 240 218 198 229 244 243 224 207 205
235 269 264 263 284 298 302 299 294 288 275 289 277 295 294 304 328 332 324 317 310 305 295 290 292 276 282 253 237 229 227 237 255 244 240 236 215 217 222 234 222 216 212 190
203 261 271 267 285 290 292 291 293 313 296 300 287 292 312 324 329 323 307 304 302 292 289 295 283 288 284 272 236 252 236 228 244 256 242 242 216 201 207 221 211 205 204 201
188 266 281 281 283 286 292 304 330 311 303 315 314 299 311 339 336 317 303 299 299 295 293 293 289 271 279 287 268 256 226 230 232 252 234 241 232 190 203 211 205 203 196 188
271 274 282 280 295 304 298 346 267 316 316 319 297 302 345 321 314 307 303 299 288 279 279 277 268 271 262 273 282 255 251 222 228 234 233 219 231 189 200 209 201 192 184 180
254 259 275 285 299 284 303 46 7 320 304 293 303 330 313 320 314 299 296 287 285 281 279 277 272 267 262 258 258 268 242 236 228 223 236 205 205 197 196 194 185 174 167 173
207 256 294 274 287 285 295 51 293 294 295 284 337 320 316 311 310 298 292 289 279 278 279 273 271 263 259 248 250 251 238 229 223 217 227 237 203 189 187 178 180 178 181 174
319 292 260 289 288 295 314 22 348 304 298 46 337 305 309 314 306 294 310 307 299 288 278 270 264 255 246 243 234 234 232 223 216 208 222 224 207 197 192 186 178 173 176 169
320 311 285 284 296 288 342 7 354 334 314 330 317 313 310 301 290 292 299 300 302 295 290 285 263 241 229 229 218 226 221 219 210 205 211 207 205 194 192 184 180 176 168 167
301 291 299 309 297 284 350 344 327 287 311 315 317 317 310 304 304 305 306 308 309 306 300 276 252 230 215 209 212 215 214 209 201 204 203 196 199 190 186 182 179 178 171 168
295 304 299 280 275 296 313 342 345 335 325 322 320 315 312 308 308 311 311 314 309 323 320 296 226 217 205 202 198 206 202 196 194 193 189 184 188 187 187 181 174 172 174 170
302 311 302 307 294 310 323 336 337 328 329 323 320 315 316 308 311 313 315 317 312 301 358 164 177 189 195 188 199 194 196 190 185 191 174 180 177 178 175 177 171 177 175 172
289 292 285 278 305 321 315 332 334 332 328 324 328 322 318 316 317 321 322 329 358 2 216 251 161 177 187 190 185 187 191 182 193 178 170 171 173 171 173 174 175 175 178 177
277 316 317 302 318 305 299 328 335 329 327 328 327 323 323 324 329 330 330 340 354 349 324 198 222 215 183 181 183 179 181 193 178 161 162 166 165 165 169 168 165 170 172 171